International Virtual Aviation Organisation

Eastern Europe and Northern Asia MCD

 

Карточка аэропорта UATE

Внимание!
Информация на этой странице в стадии наполнения.
Если вы не увидели какой-то информации, или заметили неточность - пожалуйста сообщите нам!
Спасибо!
Команда RU-STAFF
Название аэропортаАктау
Название аэропорта (англ.)Aktau
Превышение75 ft. (22.9 m.)
Координаты43°51.138', 51°5.3639999999999'
Высота перехода2050
Эшелон переходаFL40
Коды ответчика3460-3467, 3550-3557
Зона ОрВДАктобе РПИ (UATT)
Данные METARUATE 121230Z 19007MPS CAVOK 20/02 Q1021 R12/0///70 NOSIG RMK QFE764/1019
Проноз погоды (TAF)UATE 121103Z 1212/1312 14009G15MPS 9999 SCT033CB TX25/1309Z TN12/1303Z TEMPO 1212/1216 18007G13MPS BECMG 1216/1218 VRB03MPS BECMG 1220/1222 09006MPS
NOTAMshow/hide NOTAM
AWOS   TABLE

Информация о ВПП

ВПП Длина ВПП (м.) Покрытие Курс ВПП Частота ILS
303052Асфальт302111.1
123052Асфальтобетон122109.5

Диспетчерские позиции

Позывной Наименование органа УВД Частота
UATE_APPАктау Поход134.3
UATE_TWRАктау Вышка120.7



Спутниковое изображение